Torna al catalogo

STARLINK-31788

AttivoComunicazioniVLEO
NORAD 60055·PAYLOAD·🇺🇸 United States

Lanciato Jun 8, 2024 da Vandenberg Space Force Base

Loading…

Prossimi Passaggi (prossime 24 ore)

TLE

AggiornatoSource: CelesTrak SupGP

Epoca: Sep 15, 2026, 02:58 UTC

1 60055C 24112T   26258.12409722 -.00008632  00000+0 -25499-3 0  2586
2 60055  53.1586 276.9512 0001293  88.0502 355.1158 15.34401057    15

Traccia STARLINK-31788 in tempo reale con AllMySat

Download on the App Store